Location: LDNL
(36.4545°S, 141.6685°E)
Time: 11:02:47
(UTC+10:00)

A-11 Canister half - Pass Details

Date: 16 August 2022
Orbit: 1524 x 1684 km, 47.3° (Epoch: 26 September)

Event Time Altitude Azimuth Distance (km) Brightness Sun altitude
Rises 17:44:27 0° 284° (WNW) 4,714 14.6 2.2°
Reaches altitude 10° 17:47:37 10° 279° (W) 3,721 13.2 1.6°
Maximum altitude 17:56:48 57° 201° (SSW) 1,770 9.5 -0.1°
Drops below altitude 10° 18:05:59 10° 123° (ESE) 3,719 10.4 -1.9°
Enters shadow 18:08:41 - 119° (ESE) 4,563 10.8 -2.4°
Sets 18:09:10 0° 119° (ESE) 4,712 - -2.5°
